Weather History for Nome, AK

Change the Weather History Date:

Wednesday, March 6, 2013

  Actual Average Record
Temperature  
Mean Temperature 29 °F -  
Max Temperature 32 °F 18 °F 39 °F (1984)
Min Temperature 25 °F - -37 °F (1971)
Degree Days  
Heating Degree Days 36 56  
Month to date heating degree days 293 336  
Since 1 July heating degree days 9834 9618  
Cooling Degree Days 0    
Month to date cooling degree days 0  
Year to date cooling degree days 0  
Moisture  
Dew Point 27 °F    
Average Humidity 0    
Maximum Humidity 0    
Minimum Humidity 0    
Precipitation  
Precipitation 0.04 in 0.03 in 0.24 in (1921)
Month to date precipitation 0.13 0.15  
Year to date precipitation 1.65 2.02  
Snow  
Snow 0.40 in 0.30 in 2.20 in (1954)
Month to date snowfall 1.3 2.1  
Since 1 July snowfall 42.6 58.8  
Snow Depth 24.00 in    
Sea Level Pressure  
Sea Level Pressure 29.64 in    
Wind  
Wind Speed 12 mph (SE)    
Max Wind Speed 20 mph    
Max Gust Speed 23 mph    
Visibility 5 miles    
Events Fog , Snow    
T = Trace of Precipitation, MM = Missing Value Source: NWS Daily Summary

Daily Weather History Graph

Daily Weather History Graph

Search for Another Location

Airport:

Trip Planner

Search our weather history database for the weather conditions in past years. The results will help you decide how hot, cold, wet, or windy it might be!

Date:

Astronomy

Mar. 06, 2013 Rise Set
Actual Time 8:50 AM AKST 7:36 PM AKST
Civil Twilight 8:02 AM AKST 8:24 PM AKST
Nautical Twilight 7:06 AM AKST 9:21 PM AKST
Astronomical Twilight 6:07 AM AKST 10:21 PM AKST
Moon 6:51 AM AKST (3/6) 12:54 PM AKST (3/6)
Length of Visible Light 12h 22m
Length of Day
10h 45m
Waning Crescent, 28% of the Moon is Illuminated
Mar 6
Waning Crescent
Mar 11
New
Mar 19
First Quarter
Mar 27
Full
Apr 2
Last Quarter

Hourly Weather History & Observations

Time (AKST) Temp. Windchill Dew Point Humidity Pressure Visibility Wind Dir Wind Speed Gust Speed Precip Events Conditions
12:53 AM 32.0 °F 20.5 °F 30.9 °F 96% 29.60 in 1.8 mi ESE 18.4 mph - 0.00 in Snow Light Snow
1:03 AM 32.0 °F 20.5 °F 32.0 °F 100% 29.59 in 2.0 mi ESE 18.4 mph - 0.00 in Snow Light Snow
1:15 AM 32.0 °F 20.5 °F 30.2 °F 93% 29.59 in 3.0 mi ESE 18.4 mph - 0.01 in Snow Light Snow
1:53 AM 32.0 °F 20.8 °F 30.9 °F 96% 29.58 in 3.0 mi ESE 17.3 mph - 0.01 in Snow Light Snow
1:56 AM 32.0 °F 20.8 °F 30.2 °F 93% 29.58 in 2.0 mi ESE 17.3 mph - 0.00 in Snow Light Snow
2:04 AM 32.0 °F 21.2 °F 30.2 °F 93% 29.58 in 1.2 mi ESE 16.1 mph - 0.00 in Snow Light Snow
2:18 AM 32.0 °F 22.5 °F 30.2 °F 93% 29.58 in 2.5 mi SE 12.7 mph - 0.01 in Snow Light Snow
2:35 AM 32.0 °F 22.1 °F 30.2 °F 93% 29.58 in 1.8 mi ESE 13.8 mph - 0.01 in Snow Light Snow
2:38 AM 32.0 °F 21.6 °F 30.2 °F 93% 29.58 in 2.5 mi ESE 15.0 mph - 0.01 in Snow Light Snow
2:46 AM 32.0 °F 21.6 °F 30.2 °F 93% 29.58 in 7.0 mi SE 15.0 mph - 0.01 in Snow Light Snow
2:53 AM 32.0 °F 21.6 °F 30.9 °F 96% 29.58 in 5.0 mi SE 15.0 mph - 0.01 in Snow Light Snow
3:10 AM 32.0 °F 22.5 °F 30.2 °F 93% 29.57 in 2.0 mi SE 12.7 mph - 0.00 in Snow Light Snow
3:20 AM 30.2 °F 20.8 °F 30.2 °F 100% 29.58 in 1.8 mi SE 11.5 mph - 0.00 in Snow Light Snow
3:29 AM 30.2 °F 20.2 °F 30.2 °F 100% 29.58 in 2.0 mi SE 12.7 mph - 0.00 in Snow Light Snow
3:44 AM 30.2 °F 20.2 °F 30.2 °F 100% 29.58 in 6.0 mi SSE 12.7 mph - 0.00 in Snow Light Snow
3:53 AM 30.9 °F 21.2 °F 30.9 °F 100% 29.58 in 3.0 mi SSE 12.7 mph - 0.00 in   Overcast
3:56 AM 30.2 °F 20.2 °F 30.2 °F 100% 29.58 in 1.8 mi SSE 12.7 mph - 0.00 in Snow Light Snow
4:32 AM 28.4 °F 18.0 °F 28.4 °F 100% 29.58 in 2.5 mi SW 12.7 mph - 0.01 in Snow Light Snow
4:36 AM 28.4 °F 18.0 °F 28.4 °F 100% 29.58 in 3.0 mi SW 12.7 mph - 0.01 in Snow Light Snow
4:53 AM 28.9 °F 18.6 °F 28.0 °F 96% 29.59 in 5.0 mi SW 12.7 mph - 0.01 in Snow Light Snow
5:13 AM 28.4 °F 20.4 °F 28.4 °F 100% 29.59 in 7.0 mi SSW 8.1 mph - 0.00 in   Overcast
5:53 AM 27.0 °F - 26.1 °F 96% 29.61 in 8.0 mi Calm Calm - 0.00 in   Overcast
6:21 AM 26.6 °F 22.6 °F 26.6 °F 100% 29.60 in 9.0 mi South 3.5 mph - N/A   Overcast
6:31 AM 26.6 °F 22.6 °F 26.6 °F 100% 29.61 in 9.0 mi SSE 3.5 mph - N/A   Overcast
6:41 AM 26.6 °F 22.6 °F 24.8 °F 93% 29.61 in 9.0 mi SE 3.5 mph - N/A   Overcast
6:53 AM 26.1 °F 20.5 °F 25.0 °F 96% 29.62 in 9.0 mi SE 4.6 mph - N/A   Overcast
7:09 AM 26.6 °F 20.0 °F 24.8 °F 93% 29.63 in 10.0 mi SSE 5.8 mph - N/A   Overcast
7:21 AM 26.6 °F 20.0 °F 24.8 °F 93% 29.62 in 5.0 mi SE 5.8 mph - 0.00 in Snow Light Snow
7:53 AM 26.1 °F 19.4 °F 25.0 °F 96% 29.63 in 5.0 mi SSE 5.8 mph - 0.01 in Snow Light Snow
8:46 AM 26.6 °F 20.0 °F 24.8 °F 93% 29.64 in 9.0 mi SE 5.8 mph - 0.00 in Snow Light Snow
8:53 AM 26.1 °F 20.5 °F 25.0 °F 96% 29.65 in 9.0 mi ESE 4.6 mph - 0.00 in Snow Light Snow
9:53 AM 27.0 °F 19.5 °F 27.0 °F 100% 29.66 in 3.0 mi SSE 6.9 mph - 0.00 in   Overcast
10:08 AM 26.6 °F 18.2 °F 26.6 °F 100% 29.66 in 1.0 mi SSE 8.1 mph - N/A   Overcast
10:17 AM 26.6 °F 16.2 °F 26.6 °F 100% 29.65 in 0.5 mi South 11.5 mph - N/A Fog Light Freezing Fog
10:38 AM 26.6 °F 18.2 °F 26.6 °F 100% 29.66 in 0.2 mi SSE 8.1 mph - N/A Fog Light Freezing Fog
10:51 AM 26.6 °F 19.1 °F 26.6 °F 100% 29.67 in 0.2 mi SSE 6.9 mph - N/A Fog Light Freezing Fog
10:53 AM 26.1 °F 18.4 °F 26.1 °F 100% 29.67 in 0.2 mi SSE 6.9 mph - N/A Fog Light Freezing Fog
11:53 AM 26.1 °F 17.6 °F 26.1 °F 100% 29.69 in 0.2 mi ESE 8.1 mph - N/A Fog Light Freezing Fog
12:04 PM 26.6 °F 17.5 °F 26.6 °F 100% 29.68 in 0.5 mi SE 9.2 mph - N/A   Mist
12:07 PM 26.6 °F 18.2 °F 26.6 °F 100% 29.68 in 1.0 mi SE 8.1 mph - N/A   Mist
12:16 PM 26.6 °F 18.2 °F 26.6 °F 100% 29.68 in 0.5 mi SE 8.1 mph - 0.00 in Fog , Snow Light Snow
12:22 PM 26.6 °F 19.1 °F 26.6 °F 100% 29.68 in 1.5 mi SE 6.9 mph - 0.00 in Snow Light Snow
12:42 PM 26.6 °F 16.2 °F 26.6 °F 100% 29.69 in 4.0 mi SE 11.5 mph - 0.00 in Snow Light Snow
12:53 PM 26.1 °F 16.2 °F 26.1 °F 100% 29.69 in 5.0 mi SE 10.4 mph - 0.00 in Snow Light Snow
12:58 PM 26.6 °F 16.8 °F 26.6 °F 100% 29.69 in 1.8 mi SE 10.4 mph - 0.00 in   Overcast
1:33 PM 26.6 °F 16.8 °F 24.8 °F 93% 29.69 in 6.0 mi SE 10.4 mph - 0.00 in   Overcast
1:53 PM 26.1 °F 15.6 °F 25.0 °F 96% 29.70 in 10.0 mi SE 11.5 mph - 0.00 in   Overcast
2:01 PM 26.6 °F 16.2 °F 24.8 °F 93% 29.70 in 10.0 mi SSE 11.5 mph - N/A   Overcast
2:53 PM 26.1 °F 15.6 °F 25.0 °F 96% 29.71 in 3.0 mi SE 11.5 mph - 0.00 in Snow Light Snow
3:16 PM 26.6 °F 17.5 °F 24.8 °F 93% 29.71 in 3.0 mi SE 9.2 mph - 0.00 in Snow Light Snow
3:50 PM 26.6 °F 17.5 °F 24.8 °F 93% 29.70 in 2.0 mi ESE 9.2 mph - 0.00 in Snow Light Snow
3:53 PM 26.1 °F 16.8 °F 25.0 °F 96% 29.70 in 2.0 mi SE 9.2 mph - 0.00 in Snow Light Snow
4:12 PM 26.6 °F 18.2 °F 24.8 °F 93% 29.71 in 3.0 mi ESE 8.1 mph - 0.00 in Snow Light Snow
4:38 PM 26.6 °F 17.5 °F 24.8 °F 93% 29.70 in 3.0 mi ESE 9.2 mph - 0.00 in Snow Light Snow
4:53 PM 26.1 °F 16.2 °F 25.0 °F 96% 29.70 in 2.5 mi ESE 10.4 mph - 0.00 in Snow Light Snow
5:03 PM 26.6 °F 16.8 °F 24.8 °F 93% 29.70 in 3.0 mi ESE 10.4 mph - 0.00 in Snow Light Snow
5:53 PM 25.0 °F 14.8 °F 24.1 °F 96% 29.70 in 10.0 mi ESE 10.4 mph - 0.00 in   Overcast
6:43 PM 26.6 °F 17.5 °F 24.8 °F 93% 29.70 in 3.0 mi ESE 9.2 mph - 0.00 in Snow Light Snow
6:53 PM 25.0 °F 15.5 °F 24.1 °F 96% 29.70 in 3.0 mi East 9.2 mph - 0.00 in Snow Light Snow
7:53 PM 25.0 °F 16.3 °F 24.1 °F 96% 29.69 in 8.0 mi East 8.1 mph - 0.00 in Snow Light Snow
8:53 PM 25.0 °F 14.8 °F 23.0 °F 92% 29.68 in 10.0 mi East 10.4 mph - 0.00 in   Overcast
9:22 PM 24.8 °F 15.3 °F 24.8 °F 100% 29.68 in 10.0 mi East 9.2 mph - N/A   Overcast
9:53 PM 25.0 °F 13.6 °F 23.0 °F 92% 29.67 in 10.0 mi East 12.7 mph - N/A   Overcast
10:36 PM 24.8 °F 14.0 °F 24.8 °F 100% 29.65 in 10.0 mi ENE 11.5 mph - N/A   Overcast
10:53 PM 26.1 °F 15.6 °F 24.1 °F 92% 29.65 in 10.0 mi ENE 11.5 mph - N/A   Overcast
11:23 PM 26.6 °F 17.5 °F 24.8 °F 93% 29.64 in 10.0 mi ENE 9.2 mph - N/A   Overcast
11:53 PM 26.1 °F 17.6 °F 24.1 °F 92% 29.64 in 10.0 mi ENE 8.1 mph - N/A   Overcast
11:58 PM 26.6 °F 18.2 °F 24.8 °F 93% 29.64 in 10.0 mi ENE 8.1 mph - N/A   Overcast